Oak Island, MN

8:18 PM CDT on September 30, 2016 (GMT -0500)
Flag Island

Weather History for KFGN - April, 2013

Change the Weather History Date:

Monday, April 8, 2013

  Actual Average Record
Temperature  
Mean Temperature 25 °F -  
Max Temperature 33 °F 37 °F 55 °F (2005)
Min Temperature 15 °F 22 °F 1 °F (1997)
Degree Days  
Heating Degree Days 40    
Moisture  
Dew Point 19 °F    
Average Humidity 72    
Maximum Humidity 93    
Minimum Humidity 52    
Precipitation  
Precipitation 0.00 in - - ()
Sea Level Pressure  
Sea Level Pressure 29.97 in    
Wind  
Wind Speed 12 mph (NNW)    
Max Wind Speed 21 mph    
Max Gust Speed 26 mph    
Visibility 10 miles    
Events      
Averages and records for this station are not official NWS values.
T = Trace of Precipitation, MM = Missing Value Source: NWS Daily Summary

Daily Weather History Graph

Daily Weather History Graph

Search for Another Location

Airport or City:

Trip Planner

Search our weather history database for the weather conditions in past years. The results will help you decide how hot, cold, wet, or windy it might be!

Date:

Astronomy

Apr. 08, 2013 Rise Set
Actual Time 6:41 AM CDT 8:02 PM CDT
Civil Twilight 6:08 AM CDT 8:35 PM CDT
Nautical Twilight 5:28 AM CDT 9:15 PM CDT
Astronomical Twilight 4:45 AM CDT 9:58 PM CDT
Moon 5:40 AM CDT (4/8) 6:32 PM CDT (4/8)
Length of Visible Light 14h 26m
Length of Day
13h 20m
Waning Crescent, 3% of the Moon is Illuminated
Apr 8
Waning Crescent
Apr 10
New
Apr 18
First Quarter
Apr 25
Full
May 2
Last Quarter

Hourly Weather History & Observations

Time (CDT) Temp. Windchill Dew Point Humidity Pressure Visibility Wind Dir Wind Speed Gust Speed Precip Events Conditions
12:13 AM 30.2 °F 22.6 °F 26.6 °F 86% 29.84 in 10.0 mi NNE 8.1 mph - N/A   Overcast
12:34 AM 30.2 °F 23.4 °F 26.6 °F 86% 29.85 in 10.0 mi NNE 6.9 mph - N/A   Overcast
12:53 AM 30.2 °F 21.9 °F 26.6 °F 86% 29.85 in 10.0 mi NNE 9.2 mph - N/A   Overcast
1:13 AM 30.2 °F 20.8 °F 26.6 °F 86% 29.85 in 10.0 mi North 11.5 mph - N/A   Overcast
1:34 AM 28.4 °F 18.0 °F 26.6 °F 93% 29.85 in 10.0 mi North 12.7 mph - N/A   Overcast
1:53 AM 28.4 °F 18.5 °F 26.6 °F 93% 29.86 in 10.0 mi NNE 11.5 mph - N/A   Overcast
2:13 AM 28.4 °F 18.5 °F 26.6 °F 93% 29.86 in 10.0 mi North 11.5 mph - N/A   Overcast
2:34 AM 28.4 °F 19.1 °F 26.6 °F 93% 29.87 in 10.0 mi North 10.4 mph - N/A   Overcast
2:53 AM 28.4 °F 19.1 °F 24.8 °F 86% 29.86 in 10.0 mi North 10.4 mph - N/A   Overcast
3:13 AM 28.4 °F 19.1 °F 24.8 °F 86% 29.86 in 10.0 mi North 10.4 mph - N/A   Overcast
3:34 AM 28.4 °F 19.1 °F 24.8 °F 86% 29.86 in 10.0 mi North 10.4 mph - N/A   Overcast
3:53 AM 28.4 °F 21.2 °F 24.8 °F 86% 29.86 in 10.0 mi North 6.9 mph - N/A   Overcast
4:13 AM 26.6 °F 16.8 °F 24.8 °F 93% 29.87 in 10.0 mi North 10.4 mph - N/A   Overcast
4:33 AM 26.6 °F 16.8 °F 24.8 °F 93% 29.87 in 10.0 mi North 10.4 mph - N/A   Overcast
4:53 AM 26.6 °F 16.8 °F 24.8 °F 93% 29.87 in 10.0 mi North 10.4 mph - N/A   Overcast
5:14 AM 26.6 °F 16.2 °F 24.8 °F 93% 29.88 in 10.0 mi North 11.5 mph - N/A   Overcast
5:54 AM 26.6 °F 16.8 °F 24.8 °F 93% 29.88 in 10.0 mi North 10.4 mph - N/A   Overcast
6:14 AM 26.6 °F 15.7 °F 23.0 °F 86% 29.88 in 10.0 mi North 12.7 mph - N/A   Overcast
6:33 AM 26.6 °F 16.2 °F 23.0 °F 86% 29.89 in 10.0 mi North 11.5 mph - N/A   Light Freezing Rain
6:53 AM 26.6 °F 17.5 °F 23.0 °F 86% 29.90 in 10.0 mi North 9.2 mph - N/A   Light Freezing Rain
7:14 AM 26.6 °F 15.2 °F 21.2 °F 80% 29.91 in 10.0 mi North 13.8 mph - N/A   Overcast
7:33 AM 24.8 °F 11.9 °F 21.2 °F 86% 29.91 in 10.0 mi North 16.1 mph - N/A   Light Freezing Rain
7:53 AM 24.8 °F 12.4 °F 19.4 °F 80% 29.92 in 10.0 mi North 15.0 mph - N/A   Overcast
8:14 AM 24.8 °F 13.4 °F 19.4 °F 80% 29.92 in 10.0 mi North 12.7 mph - N/A   Overcast
8:33 AM 24.8 °F 12.9 °F 19.4 °F 80% 29.92 in 10.0 mi North 13.8 mph - N/A   Overcast
8:53 AM 24.8 °F 14.6 °F 19.4 °F 80% 29.92 in 10.0 mi North 10.4 mph - N/A   Overcast
9:14 AM 24.8 °F 13.4 °F 19.4 °F 80% 29.92 in 10.0 mi North 12.7 mph - N/A   Overcast
9:33 AM 24.8 °F 14.0 °F 19.4 °F 80% 29.92 in 10.0 mi NNW 11.5 mph - N/A   Overcast
9:53 AM 26.6 °F 15.2 °F 19.4 °F 74% 29.92 in 10.0 mi NNW 13.8 mph - N/A   Overcast
10:14 AM 26.6 °F 14.3 °F 19.4 °F 74% 29.93 in 10.0 mi NNW 16.1 mph - N/A   Overcast
10:33 AM 26.6 °F 15.7 °F 19.4 °F 74% 29.93 in 10.0 mi NNW 12.7 mph - N/A   Overcast
10:53 AM 26.6 °F 15.2 °F 19.4 °F 74% 29.93 in 10.0 mi NNW 13.8 mph - N/A   Overcast
11:14 AM 28.4 °F 18.0 °F 19.4 °F 69% 29.94 in 10.0 mi North 12.7 mph - N/A   Scattered Clouds
11:33 AM 28.4 °F 17.5 °F 19.4 °F 69% 29.94 in 10.0 mi North 13.8 mph - N/A   Clear
11:53 AM 30.2 °F 20.2 °F 19.4 °F 64% 29.95 in 10.0 mi North 12.7 mph - N/A   Clear
12:13 PM 30.2 °F 20.8 °F 19.4 °F 64% 29.94 in 10.0 mi North 11.5 mph - N/A   Clear
12:33 PM 30.2 °F 20.2 °F 19.4 °F 64% 29.95 in 10.0 mi North 12.7 mph - N/A   Clear
12:54 PM 30.2 °F 20.8 °F 19.4 °F 64% 29.95 in 10.0 mi North 11.5 mph 17.3 mph N/A   Clear
1:13 PM 32.0 °F 23.0 °F 19.4 °F 60% 29.95 in 10.0 mi North 11.5 mph - N/A   Clear
1:33 PM 33.8 °F 26.4 °F 19.4 °F 56% 29.96 in 10.0 mi North 9.2 mph - N/A   Scattered Clouds
1:54 PM 33.8 °F 24.3 °F 17.6 °F 52% 29.97 in 10.0 mi NNW 13.8 mph - N/A   Overcast
2:13 PM 33.8 °F 24.8 °F 19.4 °F 56% 29.98 in 10.0 mi NNW 12.7 mph - N/A   Overcast
2:33 PM 33.8 °F 24.3 °F 19.4 °F 56% 29.98 in 10.0 mi NNW 13.8 mph - N/A   Mostly Cloudy
2:54 PM 33.8 °F 24.3 °F 17.6 °F 52% 29.99 in 10.0 mi NNW 13.8 mph - N/A   Scattered Clouds
3:13 PM 33.8 °F 25.3 °F 19.4 °F 56% 29.99 in 10.0 mi NNW 11.5 mph - N/A   Scattered Clouds
3:33 PM 33.8 °F 23.9 °F 19.4 °F 56% 30.00 in 10.0 mi NNW 15.0 mph - N/A   Clear
3:54 PM 33.8 °F 24.3 °F 19.4 °F 56% 30.00 in 10.0 mi NW 13.8 mph - N/A   Clear
4:13 PM 33.8 °F 23.9 °F 17.6 °F 52% 30.01 in 10.0 mi NW 15.0 mph - N/A   Clear
4:33 PM 33.8 °F 24.8 °F 19.4 °F 56% 30.01 in 10.0 mi NW 12.7 mph - N/A   Clear
4:54 PM 33.8 °F 23.5 °F 17.6 °F 52% 30.02 in 10.0 mi NW 16.1 mph - N/A   Clear
5:13 PM 32.0 °F 21.6 °F 17.6 °F 55% 30.02 in 10.0 mi NW 15.0 mph - N/A   Clear
5:33 PM 32.0 °F 21.2 °F 17.6 °F 55% 30.03 in 10.0 mi NW 16.1 mph - N/A   Clear
5:54 PM 32.0 °F 20.5 °F 17.6 °F 55% 30.04 in 10.0 mi NW 18.4 mph - N/A   Clear
6:13 PM 30.2 °F 17.8 °F 17.6 °F 60% 30.05 in 10.0 mi NW 19.6 mph - N/A   Clear
6:33 PM 28.4 °F 15.1 °F 15.8 °F 59% 30.07 in 10.0 mi WNW 20.7 mph 25.3 mph N/A   Clear
6:54 PM 28.4 °F 16.2 °F 15.8 °F 59% 30.07 in 10.0 mi NW 17.3 mph 23.0 mph N/A   Clear
7:13 PM 28.4 °F 16.2 °F 15.8 °F 59% 30.07 in 10.0 mi NW 17.3 mph - N/A   Scattered Clouds
7:33 PM 26.6 °F 13.4 °F 15.8 °F 64% 30.08 in 10.0 mi NW 18.4 mph - N/A   Clear
7:54 PM 26.6 °F 13.1 °F 15.8 °F 64% 30.09 in 10.0 mi NW 19.6 mph - N/A   Clear
8:13 PM 24.8 °F 12.4 °F 14.0 °F 64% 30.10 in 10.0 mi NW 15.0 mph - N/A   Clear
8:33 PM 24.8 °F 11.1 °F 14.0 °F 64% 30.12 in 10.0 mi NW 18.4 mph 24.2 mph N/A   Clear
8:54 PM 23.0 °F 8.3 °F 12.2 °F 63% 30.12 in 10.0 mi NW 19.6 mph - N/A   Clear
9:13 PM 21.2 °F 6.4 °F 14.0 °F 74% 30.13 in 10.0 mi NW 18.4 mph 25.3 mph N/A   Clear
9:33 PM 21.2 °F 5.6 °F 12.2 °F 68% 30.14 in 10.0 mi NW 20.7 mph - N/A   Clear
9:54 PM 21.2 °F 5.6 °F 12.2 °F 68% 30.15 in 10.0 mi NW 20.7 mph - N/A   Clear
10:13 PM 19.4 °F 3.2 °F 10.4 °F 68% 30.16 in 10.0 mi NW 20.7 mph 26.5 mph N/A   Clear
10:33 PM 19.4 °F 4.1 °F 10.4 °F 68% 30.16 in 10.0 mi NW 18.4 mph 24.2 mph N/A   Clear
10:54 PM 17.6 °F 2.2 °F 10.4 °F 73% 30.17 in 10.0 mi NW 17.3 mph - N/A   Clear
11:13 PM 17.6 °F 1.7 °F 10.4 °F 73% 30.17 in 10.0 mi NW 18.4 mph - N/A   Clear
11:33 PM 17.6 °F 3.7 °F 10.4 °F 73% 30.18 in 10.0 mi NW 13.8 mph 19.6 mph N/A   Clear
11:54 PM 15.8 °F -0.2 °F 8.6 °F 73% 30.19 in 10.0 mi NW 17.3 mph 26.5 mph N/A   Clear